TimeCST,TemperatureF,Dew PointF,Humidity,Sea Level PressureIn,VisibilityMPH,Wind Direction,Wind SpeedMPH,Gust SpeedMPH,PrecipitationIn,Events,Conditions,WindDirDegrees,DateUTC
12:15 AM,48.9,33.3,55,30.20,10.0,NW,11.5,16.1,N/A,,Clear,320,2014-01-15 06:15:00
12:35 AM,48.2,32.0,54,30.21,10.0,NNW,12.7,18.4,N/A,,Clear,330,2014-01-15 06:35:00
12:55 AM,47.3,30.0,51,30.22,10.0,NNW,11.5,18.4,N/A,,Clear,340,2014-01-15 06:55:00
1:15 AM,46.6,27.7,48,30.22,10.0,NNW,9.2,17.3,N/A,,Clear,340,2014-01-15 07:15:00
1:35 AM,45.5,26.1,47,30.24,10.0,NNW,10.4,-,N/A,,Clear,340,2014-01-15 07:35:00
1:55 AM,44.8,25.5,47,30.25,10.0,NNW,8.1,-,N/A,,Clear,330,2014-01-15 07:55:00
2:15 AM,43.7,25.2,48,30.26,10.0,NNW,6.9,-,N/A,,Clear,330,2014-01-15 08:15:00
2:35 AM,42.1,25.3,52,30.27,10.0,NW,4.6,-,N/A,,Clear,320,2014-01-15 08:35:00
2:55 AM,41.7,25.7,53,30.27,10.0,NNW,5.8,-,N/A,,Clear,330,2014-01-15 08:55:00
3:15 AM,40.6,25.3,54,30.28,10.0,NNW,4.6,-,N/A,,Clear,330,2014-01-15 09:15:00
3:35 AM,40.5,24.8,54,30.28,10.0,Calm,Calm,-,N/A,,Clear,0,2014-01-15 09:35:00
3:55 AM,37.6,27.0,66,30.27,10.0,Calm,Calm,-,N/A,,Clear,0,2014-01-15 09:55:00
4:15 AM,35.8,25.9,67,30.28,10.0,NW,3.5,-,N/A,,Clear,310,2014-01-15 10:15:00
4:35 AM,36.7,25.2,63,30.27,10.0,Calm,Calm,-,N/A,,Clear,0,2014-01-15 10:35:00
4:55 AM,35.2,25.7,68,30.27,10.0,Calm,Calm,-,N/A,,Clear,0,2014-01-15 10:55:00
5:15 AM,32.4,27.3,82,30.27,10.0,Calm,Calm,-,N/A,,Clear,0,2014-01-15 11:15:00
5:35 AM,32.0,26.4,80,30.27,10.0,Calm,Calm,-,N/A,,Clear,0,2014-01-15 11:35:00
5:55 AM,31.3,26.6,83,30.28,10.0,Calm,Calm,-,N/A,,Clear,0,2014-01-15 11:55:00
6:15 AM,32.0,25.3,76,30.28,10.0,Calm,Calm,-,N/A,,Clear,0,2014-01-15 12:15:00
6:35 AM,30.6,25.3,81,30.28,10.0,NW,3.5,-,N/A,,Clear,310,2014-01-15 12:35:00
6:55 AM,32.5,23.9,70,30.29,10.0,NW,3.5,-,N/A,,Clear,310,2014-01-15 12:55:00
7:15 AM,32.4,23.5,70,30.29,10.0,NW,3.5,-,N/A,,Clear,320,2014-01-15 13:15:00
7:35 AM,32.4,23.4,69,30.30,10.0,NNW,3.5,-,N/A,,Clear,330,2014-01-15 13:35:00
7:55 AM,33.1,24.4,71,30.31,10.0,NW,3.5,-,N/A,,Clear,320,2014-01-15 13:55:00
8:15 AM,35.4,24.4,64,30.31,10.0,NW,3.5,-,N/A,,Clear,310,2014-01-15 14:15:00
8:35 AM,37.4,24.6,60,30.32,10.0,NW,4.6,-,N/A,,Clear,320,2014-01-15 14:35:00
8:55 AM,39.6,22.8,51,30.33,10.0,NW,10.4,-,N/A,,Clear,310,2014-01-15 14:55:00
9:15 AM,41.7,22.5,46,30.33,10.0,NW,4.6,-,N/A,,Clear,320,2014-01-15 15:15:00
9:35 AM,42.6,20.7,42,30.34,10.0,NW,8.1,-,N/A,,Clear,320,2014-01-15 15:35:00
9:55 AM,44.2,20.5,39,30.34,10.0,NNW,8.1,-,N/A,,Clear,330,2014-01-15 15:55:00
10:15 AM,45.5,19.2,35,30.34,10.0,NNW,8.1,-,N/A,,Clear,340,2014-01-15 16:15:00
10:35 AM,46.6,19.2,34,30.34,10.0,NW,9.2,-,N/A,,Clear,320,2014-01-15 16:35:00
10:55 AM,47.1,18.7,32,30.33,10.0,NW,10.4,-,N/A,,Clear,320,2014-01-15 16:55:00
11:15 AM,48.4,18.0,30,30.32,10.0,NW,10.4,17.3,N/A,,Clear,320,2014-01-15 17:15:00
11:35 AM,49.3,18.0,29,30.30,10.0,NW,10.4,18.4,N/A,,Clear,320,2014-01-15 17:35:00
11:55 AM,49.6,17.6,28,30.29,10.0,NW,15.0,19.6,N/A,,Clear,320,2014-01-15 17:55:00
12:15 PM,50.0,17.6,28,30.28,10.0,WNW,12.7,23.0,N/A,,Clear,300,2014-01-15 18:15:00
12:35 PM,50.0,16.9,27,30.27,10.0,NW,15.0,31.1,N/A,,Clear,310,2014-01-15 18:35:00
12:55 PM,50.9,18.7,28,30.26,10.0,NW,13.8,19.6,N/A,,Clear,320,2014-01-15 18:55:00
1:15 PM,50.7,18.5,28,30.24,10.0,NNW,17.3,23.0,N/A,,Clear,330,2014-01-15 19:15:00
1:35 PM,50.7,18.0,27,30.24,10.0,NW,16.1,28.8,N/A,,Clear,310,2014-01-15 19:35:00
1:55 PM,51.1,18.0,27,30.24,10.0,WNW,15.0,27.6,N/A,,Clear,300,2014-01-15 19:55:00
2:15 PM,51.4,18.0,27,30.23,10.0,NW,12.7,20.7,N/A,,Clear,310,2014-01-15 20:15:00
2:35 PM,50.9,17.4,27,30.23,10.0,NW,15.0,26.5,N/A,,Clear,320,2014-01-15 20:35:00
2:55 PM,50.7,17.2,27,30.22,10.0,NW,17.3,25.3,N/A,,Clear,320,2014-01-15 20:55:00
3:15 PM,50.5,18.0,28,30.22,10.0,NW,11.5,20.7,N/A,,Clear,320,2014-01-15 21:15:00
3:35 PM,50.4,18.0,28,30.22,10.0,WNW,8.1,19.6,N/A,,Clear,300,2014-01-15 21:35:00
3:55 PM,50.0,18.3,29,30.21,10.0,NW,8.1,-,N/A,,Clear,310,2014-01-15 21:55:00
4:15 PM,50.0,18.7,29,30.22,10.0,WNW,8.1,-,N/A,,Clear,290,2014-01-15 22:15:00
4:35 PM,49.5,19.2,30,30.22,10.0,NW,8.1,-,N/A,,Clear,310,2014-01-15 22:35:00
4:55 PM,48.4,19.0,31,30.22,10.0,NW,10.4,-,N/A,,Clear,310,2014-01-15 22:55:00
5:15 PM,47.3,19.0,33,30.22,10.0,NW,4.6,-,N/A,,Clear,320,2014-01-15 23:15:00
5:35 PM,45.5,19.4,35,30.22,10.0,NW,4.6,-,N/A,,Clear,310,2014-01-15 23:35:00
5:55 PM,44.6,20.1,38,30.23,10.0,West,3.5,-,N/A,,Clear,280,2014-01-15 23:55:00
6:15 PM,43.2,21.6,42,30.22,10.0,Calm,Calm,-,N/A,,Clear,0,2014-01-16 00:15:00
6:35 PM,41.0,22.1,47,30.22,10.0,Calm,Calm,-,N/A,,Clear,0,2014-01-16 00:35:00
6:55 PM,39.2,24.1,55,30.22,10.0,Calm,Calm,-,N/A,,Clear,0,2014-01-16 00:55:00
7:15 PM,37.4,25.2,61,30.22,10.0,Calm,Calm,-,N/A,,Clear,0,2014-01-16 01:15:00
7:35 PM,36.3,27.1,69,30.22,10.0,Calm,Calm,-,N/A,,Clear,0,2014-01-16 01:35:00
7:55 PM,35.1,27.3,73,30.22,10.0,ESE,3.5,-,N/A,,Clear,120,2014-01-16 01:55:00
8:15 PM,33.8,27.5,78,30.21,10.0,Calm,Calm,-,N/A,,Clear,0,2014-01-16 02:15:00
8:35 PM,34.3,26.6,73,30.21,10.0,Calm,Calm,-,N/A,,Clear,0,2014-01-16 02:35:00
8:55 PM,32.9,27.0,79,30.21,10.0,Calm,Calm,-,N/A,,Clear,0,2014-01-16 02:55:00
9:15 PM,33.4,26.4,75,30.20,10.0,Calm,Calm,-,N/A,,Clear,0,2014-01-16 03:15:00
9:35 PM,32.5,27.1,80,30.20,10.0,Calm,Calm,-,N/A,,Clear,0,2014-01-16 03:35:00
9:55 PM,32.0,27.0,82,30.20,10.0,Calm,Calm,-,N/A,,Clear,0,2014-01-16 03:55:00
10:15 PM,32.5,26.2,78,30.19,10.0,Calm,Calm,-,N/A,,Clear,0,2014-01-16 04:15:00
10:35 PM,32.0,26.1,79,30.18,10.0,Calm,Calm,-,N/A,,Clear,0,2014-01-16 04:35:00
10:55 PM,30.2,27.0,88,30.17,10.0,Calm,Calm,-,N/A,,Clear,0,2014-01-16 04:55:00
11:15 PM,31.5,26.4,82,30.17,10.0,Calm,Calm,-,N/A,,Clear,0,2014-01-16 05:15:00
11:35 PM,31.6,26.8,82,30.16,10.0,Calm,Calm,-,N/A,,Clear,0,2014-01-16 05:35:00
11:55 PM,32.0,27.1,82,30.15,10.0,Calm,Calm,-,N/A,,Clear,0,2014-01-16 05:55:00